Regional Weather Roundup
Issued by NWS Sioux Falls, SD

Home | Current Version | Previous Version | Graphics & Text | Print | Product List | Glossary On
Versions: 1 2 3 4 5 6 7 8 9 10 11 12 13 14 15 16 17 18 19 20 21 22 23 24 25 26 27 28 29 30 31 32 33 34 35 36 37 38 39 40 41 42 43 44 45 46 47 48 49 50
000
ASUS43 KFSD 280910
RWRFSD

WEATHER ROUNDUP FOR SE SOUTH DAKOTA/SW MINNESOTA/NW IOWA
NATIONAL WEATHER SERVICE SIOUX FALLS SD
400 AM CDT SAT MAY 28 2016

NOTE: "FAIR" INDICATES FEW OR NO CLOUDS BELOW 12,000 FEET WITH NO
SIGNIFICANT WEATHER AND OR OBSTRUCTIONS TO VISIBILITY.


SDZ038>040-050-052>070-281000-
SOUTHEAST SOUTH DAKOTA

CITY           SKY/WX    TMP DP  RH WIND       PRES   REMARKS
BROOKINGS      CLOUDY    59  58  96 NE6       29.73F
CHAMBERLAIN    CLOUDY    59  58  97 NW5       29.77F
HURON          CLOUDY    59  57  93 N10       29.75S
MADISON        FAIR      57  57 100 NE8       29.74S
MITCHELL       CLOUDY    61  58  90 N6        29.73F
SIOUX FALLS    LGT RAIN  62  59  90 N5        29.71F
WINNER         CLOUDY    58  55  90 CALM      29.79F
YANKTON        CLOUDY    59  55  88 N8        29.71R
$$

MNZ071-072-080-081-089-090-097-098-281000-
SOUTHWEST MINNESOTA

CITY           SKY/WX    TMP DP  RH WIND       PRES   REMARKS
FAIRMONT       CLOUDY    64  61  88 E3        29.73S
JACKSON        CLOUDY    64  61  88 CALM      29.74S
LUVERNE        DRIZZLE   61  59  94 CALM      29.73R
MARSHALL       CLOUDY    61  58  90 NE7       29.75F
MONTEVIDEO     CLOUDY    59  57  94 CALM      29.78S
PIPESTONE      CLOUDY    61  59  94 NE5       29.74R FOG
REDWOOD FALLS  CLOUDY    59  57  93 NE6       29.74S
TRACY          CLOUDY    61  60  97 NE7       29.75R FOG
WINDOM         CLOUDY    64  61  88 CALM      29.74R
WORTHINGTON    LGT RAIN  62  60  93 SW14      29.73S
$$

IAZ001>003-012>014-020>022-031-032-NEZ013-014-SDZ071-281000-
NORTHWEST IOWA

CITY           SKY/WX    TMP DP  RH WIND       PRES   REMARKS
CHEROKEE       RAIN      62  62 100 NE5       29.71S
DENISON        CLOUDY    63  61  94 SE6       29.70S
ESTHERVILLE    CLOUDY    64  62  93 CALM      29.72F
LE MARS        CLOUDY    63  59  88 NE7       29.71S
ORANGE CITY    LGT RAIN  61  61 100 N3        29.72S
SHELDON        CLOUDY    61  61 100 CALM      29.71F
SIOUX CITY     CLOUDY    64  61  90 E13       29.67F
SPENCER        CLOUDY    64  62  93 NW5       29.73R
STORM LAKE     CLOUDY    63  63 100 SE5       29.72F
$$

ABBREVIATIONS USED IN REMARKS
   TC - TEMPERATURE IN CELSIUS
  WCI - WIND CHILL INDEX
   HX - HEAT INDEX
  VSB - VISIBILITY





USA.gov is the U.S. government's official web portal to all federal, state and local government web resources and services.